Location: Alphen
(52.1351°N, 4.6549°E)
Time: 02:09:12
(UTC+00:00)

Cosmos 1943 Rocket - Pass Details

Date: 27 January 2021
Orbit: 810 x 845 km, 71.0° (Epoch: 26 February)

Event Time Altitude Azimuth Distance (km) Brightness Sun altitude
Exits shadow 04:51:01 26° 338° (NNW) 1,606 3.4 -24.1°
Maximum altitude 04:54:17 70° 56° (NE) 898 2.4 -23.6°
Drops below altitude 10° 04:59:57 10° 141° (SE) 2,465 5.1 -22.7°
Sets 05:02:24 0° 143° (SE) 3,396 5.9 -22.3°
